User: anonymous   Login
Location: Maiden
(35.5760°N, 81.2120°W)
Time: 10:58:14
(UTC-04:00)
Language:

SR - Orbit

View from above orbital plane
View from above orbital plane
View from above satellite
View from above satellite

Ground track
Ground track

The orbit data is extracted from the following two-line orbital elements,

1    46U 60007B   20216.80449001 -.00000044  00000-0  14251-4 0  9996
2    46  66.6902 278.5808 0202388  96.1914 266.2291 14.49306704145963
Epoch (UTC): 03 August 2020 19:18:27
Eccentricity: 0.0202388
inclination: 66.6902°
perigee height: 584 km
apogee height: 872 km
right ascension of ascending node: 278.5808°
argument of perigee: 96.1914°
revolutions per day: 14.49306704
mean anomaly at epoch: 266.2291°
orbit number at epoch: 14596

The dashed part of the orbit path shows where the satellite is in the earth's shadow,  

DLR